This demonstration page uses our WeatherBlox Daily Observations layout. Learn more.

Left ArrowRight Arrow

Hourly Observations for December 23, 2020

Temp ( °F °C ) Dew Point ( °F °C ) Humidity (%) Winds ( mph kmh ) Pressure ( in mb ) Visibility ( mi km ) Precip ( " mm )
12:51 am 00:51 Clear 39 3.9 19 -7.2 45 45 E 7 11 30 1016 10 16.0934 0 0
1:51 am 01:51 Clear 36 2.2 18 -7.8 48 48 ESE 6 9 30.02 1017 10 16.0934 0 0
2:51 am 02:51 Clear 36 2.2 18 -7.8 48 48 Calm 30.03 1017 10 16.0934 0 0
3:51 am 03:51 Clear 32 0 18 -7.8 56 56 ENE 5 7 30.03 1017 10 16.0934 0 0
4:51 am 04:51 Clear 34 1.1 18 -7.8 52 52 E 3 6 30.04 1017 10 16.0934 0 0
5:51 am 05:51 Clear 29 -1.7 17 -8.3 61 61 Calm 30.07 1018 10 16.0934 0 0
6:51 am 06:51 Clear 30 -1.1 17 -8.3 58 58 ESE 5 7 30.09 1019 10 16.0934 0 0
7:51 am 07:51 Sunny 33 0.6 18 -7.8 54 54 E 8 13 30.11 1020 10 16.0934 0 0
8:51 am 08:51 Sunny 43 6.1 18 -7.8 37 37 ESE 3 6 30.1 1019 10 16.0934 0 0
9:51 am 09:51 Sunny 48 8.9 18 -7.8 30 30 Calm 30.11 1020 10 16.0934 0 0
10:51 am 10:51 Sunny 50 10 18 -7.8 28 28 WSW 5 7 30.11 1020 10 16.0934 0 0
11:51 am 11:51 Sunny 57 13.9 21 -6.1 25 25 W 14 22 30.08 1019 10 16.0934 0 0
12:51 pm 12:51 Sunny 62 16.7 17 -8.3 17 17 NW 22 35 30.04 1017 10 16.0934 0 0
1:51 pm 13:51 Sunny 61 16.1 13 -10.6 15 15 NW 24 39 30.05 1018 10 16.0934 0 0
2:51 pm 14:51 Sunny 59 15 8 -13.3 13 13 WNW 28 44 30.06 1018 10 16.0934 0 0
3:51 pm 15:51 Sunny 57 13.9 5 -15 12 12 WNW 29 46 30.1 1019 10 16.0934 0 0
4:51 pm 16:51 Sunny 53 11.7 1 -17.2 12 12 WNW 24 39 30.15 1021 10 16.0934 0 0
5:51 pm 17:51 Clear 49 9.4 3 -16.1 15 15 WNW 17 28 30.23 1024 10 16.0934 0 0
6:51 pm 18:51 Clear 45 7.2 4 -15.6 18 18 WNW 14 22 30.27 1025 10 16.0934 0 0
7:51 pm 19:51 Clear 41 5 4 -15.6 21 21 NW 9 15 30.32 1027 10 16.0934 0 0
8:51 pm 20:51 Clear 37 2.8 3 -16.1 24 24 NNW 5 7 30.35 1028 10 16.0934 0 0
9:51 pm 21:51 Clear 33 0.6 3 -16.1 28 28 NNE 3 6 30.37 1028 10 16.0934 0 0
10:51 pm 22:51 Clear 36 2.2 2 -16.7 23 23 Calm 30.37 1029 10 16.0934 0 0
11:51 pm 23:51 Clear 39 3.9 -2 -18.9 17 17 VRB 3 6 30.35 1028 10 16.0934 0 0

Powered by AerisWeather